2025-292H

Last updated on Mon Dec 15 2025 00:02:13 GMT+0000 (Coordinated Universal Time)

1 67000U 25292H 25348.80097111 .00001674 00000+0 12246-3 0 9997 2 67000 97.6593 61.3355 0013951 271.6746 88.2882 15.04913459 578
UTC large
Height (km)
Speed (km/s)
/
Latitude / Longitude
Inclination (degrees)
Orbital Period (minutes)
Azimuth
Elevation
Range (km)
Doppler Factor

Next 0 passes for location: London (51.5072 / 0.1276)

Sorry there are no passes over London.